Regional Weather Roundup
Issued by NWS Kansas City/Pleasant Hill, MO

Home | Current Version | Previous Version | Graphics & Text | Print | Product List | Glossary Off
Versions: 1 2 3 4 5 6 7 8 9 10 11 12 13 14 15 16 17 18 19 20 21 22 23 24 25 26 27 28 29 30 31 32 33 34 35 36 37 38 39 40 41 42 43 44 45 46 47 48 49 50

000
ASUS43 KEAX 281210
RWREAX

WEATHER ROUNDUP FOR EASTERN KANSAS AND NORTHWEST MISSOURI
NATIONAL WEATHER SERVICE KANSAS CITY/PLEASANT HILL MO
600 AM CST SAT FEB 28 2015

KSZ040-057-103>105-MOZ028-029-037-043-281300-
...KANSAS CITY METROPOLITAN AREA...

CITY           SKY/WX    TMP DP  RH WIND       PRES   REMARKS
K.C. INTL      CLOUDY    15   8  73 E7        30.51S WCI   5
6HR MIN TEMP:  14; 6HR MAX TEMP:  16;

K.C. DOWNTOWN  CLOUDY    17   9  70 E7        30.53S WCI   8
6HR MIN TEMP:  17; 6HR MAX TEMP:  18;

LEES SUMMIT    CLOUDY    17   8  67 E7        30.51S WCI   8
6HR MIN TEMP:  16; 6HR MAX TEMP:  17;

OLATHE - IXD   CLOUDY    17   8  67 E9        30.50S WCI   6
6HR MIN TEMP:  16; 6HR MAX TEMP:  17;

OLATHE - OJC   CLOUDY    17   8  67 E7        30.49S WCI   8
6HR MIN TEMP:  16; 6HR MAX TEMP:  17;

LAWRENCE       CLOUDY    16   8  71 E6        30.52R WCI   7

$$

MOZ001>008-011>017-020>025-030>033-038>040-044>046-053-054-281300-
...NORTHERN AND CENTRAL MISSOURI...

CITY           SKY/WX    TMP DP  RH WIND       PRES   REMARKS
ST. JOSEPH     CLEAR     13   6  74 E5        30.54R WCI   5
6HR MIN TEMP:  13; 6HR MAX TEMP:  16;

MOSBY          MOSUNNY   18  12  79 E6        30.54S WCI   9
WARRENSBURG    CLOUDY    18  10  73 E7        30.54S WCI   8
WHITEMAN AFB   NOT AVBL
CLINTON        PTCLDY    19   9  63 E5        30.54R WCI  13
SEDALIA        MOCLDY    18   8  65 E6        30.56R WCI  10
6HR MIN TEMP:  17; 6HR MAX TEMP:  19;

WARSAW         NOT AVBL
MARSHALL       CLOUDY    19  10  68 E8        30.57S WCI   9
CHILLICOTHE      N/A     14   6  70 E5        30.58R WCI   6
6HR MIN TEMP:  12; 6HR MAX TEMP:  15;

KIRKSVILLE     CLOUDY    12   3  67 SE7       30.58R WCI   1
6HR MIN TEMP:   7; 6HR MAX TEMP:  12;


$$

MOZ041-047>049-056>058-063>065-088>090-097-281300-
...EASTERN AND SOUTHERN MISSOURI...

CITY           SKY/WX    TMP DP  RH WIND       PRES   REMARKS
ST. LOUIS INTL CLOUDY    16   5  62 E7        30.64S WCI   6
6HR MIN TEMP:  15; 6HR MAX TEMP:  16;

SPIRIT OF STL  CLOUDY    17   4  56 E6        30.63S WCI   9
COLUMBIA       CLOUDY    16  10  77 E8        30.57R WCI   5
JEFFERSON CITY CLOUDY    18  10  71 E7        30.60S WCI   9
HANNIBAL       CLOUDY    12   1  62 E3        30.62R
ROLLA          CLOUDY    18   8  65 E9        30.53R WCI   7
LEBANON        CLOUDY    19   5  53 E9        30.50R WCI   9
OSAGE BEACH    CLOUDY    21   5  49 E6        30.54R WCI  14
SPRINGFIELD    CLOUDY    20  11  68 SE12      30.47S WCI   8
NEVADA         CLOUDY    21  10  63 E8        30.52S WCI  12
JOPLIN         CLOUDY    20  14  77 SE8       30.49R WCI  10
WEST PLAINS    FLURRIES  18   9  68 E9        30.52S WCI   7

$$

IAZ060-094-KSZ022-034>040-054-083-096-NEZ052-066-093-281300-
...KANSAS...SOUTHEAST NEBRASKA AND IOWA...

CITY           SKY/WX    TMP DP  RH WIND       PRES   REMARKS
TOPEKA         CLOUDY    15   7  70 E5        30.51S WCI   8
6HR MIN TEMP:  12; 6HR MAX TEMP:  17;

MANHATTAN      CLOUDY    14  11  87 NE3       30.46F
EMPORIA        CLOUDY    17   8  67 SE9       30.44F WCI   6
CHANUTE        CLOUDY    20  13  74 SE6       30.48S WCI  12
WICHITA        LGT SNOW  17  12  80 SE8       30.40F WCI   7
OMAHA          CLEAR      7   1  76 SE6       30.50S WCI  -3
LINCOLN        CLEAR      7   1  76 CALM      30.46R
FALLS CITY     CLEAR      9   3  77 SE6       30.50S WCI  -1
LAMONI         CLOUDY     6   1  80 SE5       30.53R WCI  -3
DES MOINES     CLEAR      2  -5  72 SE5       30.56S WCI  -8

$$



USA.gov is the U.S. government's official web portal to all federal, state and local government web resources and services.